#timestamp,LO_Frequency,Hit,StdDev 
1580662815.3,286046998.7,N
1580662835.1,286047000.4,N
1580662855.9,286046999.0,N
1580662875.7,286046998.2,N
1580662895.5,286047002.8,N
1580662915.4,286047002.1,N
1580662935.2,286047000.2,N
1580662955.1,286047002.0,N
1580662956.0,286047002.0,N
1580662975.8,286046999.4,N
1580662995.6,286046999.6,N
1580663015.5,286046998.4,N
1580663035.3,286046999.0,N
1580663055.1,286047000.9,N
1580663075.9,286046999.0,N
1580663095.7,286047001.2,N
1580663115.6,286047000.9,N
1580663135.4,286047001.0,N
1580663155.2,286046998.4,N
1580663175.1,286046999.7,N
1580663176.0,286046999.7,N
1580663195.8,286046999.7,N
1580663215.7,286047001.2,N
1580663235.5,286046999.1,N
1580663255.3,286047001.2,N
1580663275.2,286046999.4,N
1580663295.0,286046998.2,N
1580663295.9,286046998.2,N
1580663315.8,286047001.0,N
1580663335.6,286046999.8,N
1580663355.4,286047000.3,N
1580663375.3,286047001.1,N
1580663395.1,286047001.0,N
1580663415.8,286047001.0,N
1580663435.7,286047000.6,N
1580663455.5,286046999.5,N
1580663475.4,286046998.5,N
1580663495.2,286046999.1,N
1580663515.0,286047000.6,N
1580663515.9,286047000.6,N
1580663535.8,286047000.8,N
1580663555.6,286046998.5,N
1580663575.4,286047000.3,N
1580663595.3,286047004.4,Y
1580663615.1,286047002.6,P
1580663635.9,286047001.4,N
1580663655.7,286047001.6,N
1580663675.5,286047002.7,N
1580663695.4,286047002.1,N
1580663715.2,286046999.9,N
1580663735.0,286047000.5,N
1580663736.0,286047000.5,N
1580663755.8,286046999.8,N
1580663775.6,286046998.6,N
1580663795.5,286047000.4,N
1580663815.3,286046999.7,N
1580663835.1,286047002.4,N
1580663855.9,286047003.9,Y
1580663875.7,286047001.1,P
1580663895.6,286047002.3,P
1580663915.4,286047002.6,P
1580663935.2,286047000.1,N
1580663955.1,286047000.7,N
1580663956.0,286047000.7,N
1580663975.8,286047001.6,N
1580663995.7,286047005.9,Y
1580664015.5,286047001.9,P
1580664035.3,286047002.4,P
1580664055.2,286047001.6,P
1580664075.9,286047002.1,Y
1580664095.7,286046998.2,P
1580664115.6,286047000.1,N
1580664135.4,286047000.4,N
1580664155.3,286046998.3,N
1580664175.1,286046998.2,N
1580664176.0,286046998.2,N
1580664195.8,286046998.5,N
1580664215.7,286047000.7,N
1580664235.5,286047001.2,N
1580664255.3,286046998.1,N
1580664275.2,286047001.2,N
1580664295.0,286046999.9,N
1580664295.9,286046999.9,N
1580664315.8,286047000.1,N
1580664335.6,286047001.1,N
1580664355.4,286047000.1,N
1580664375.3,286046999.4,N
1580664395.1,286047001.1,N
1580664415.8,286047000.1,N
1580664435.7,286046998.5,N
1580664455.5,286046997.0,N
1580664475.4,286046996.6,N
1580664495.2,286046999.0,N
1580664515.0,286046997.7,N
1580664515.9,286046997.7,N
1580664535.8,286046999.4,N
1580664555.6,286047000.9,N
1580664575.4,286047000.9,N
1580664595.3,286046998.6,N
1580664615.1,286046999.9,N
1580664635.9,286046999.8,N
1580664655.7,286047000.5,N
1580664675.5,286047000.0,N
1580664695.4,286047000.2,N
1580664715.2,286047001.9,N
1580664735.1,286046998.7,N
1580664736.0,286046998.7,N
1580664755.8,286046999.0,N
1580664775.6,286046999.1,N
1580664795.5,286046998.6,N
1580664815.3,286046999.3,N
1580664835.1,286046997.1,N
1580664855.9,286046997.5,N
1580664875.7,286046994.9,Y
1580664895.6,286046997.0,P
1580664915.4,286046998.8,N
1580664935.2,286046999.1,N
1580664955.1,286046997.3,Y
1580664956.0,286046997.3,P
1580664975.8,286046999.7,N
1580664995.7,286047002.3,N
1580665015.5,286047001.6,N
1580665035.3,286047003.8,N
1580665055.2,286047003.2,N
1580665075.0,286047001.7,N
1580665075.9,286047001.7,N
1580665095.7,286047002.0,N
1580665115.6,286047000.6,N
1580665135.4,286047002.1,N
1580665155.3,286047001.9,N
1580665175.1,286047002.8,N
1580665176.0,286047002.8,N
1580665195.8,286047004.1,N
1580665215.7,286047001.8,N
1580665235.5,286047000.6,N
1580665255.3,286047000.4,N
1580665275.2,286047002.4,N
1580665295.0,286047001.9,N
1580665295.9,286047001.9,N
1580665315.8,286047000.8,N
1580665335.6,286046998.6,N
1580665355.4,286046999.1,N
1580665375.3,286046998.3,N
1580665395.1,286046998.7,N
1580665415.8,286046999.6,N
1580665435.7,286047000.6,N
1580665455.5,286047000.3,N
1580665475.4,286047000.5,N
1580665495.2,286047002.1,N
1580665515.0,286047002.3,N
1580665515.9,286047002.3,N
1580665535.8,286047002.4,N
1580665555.6,286047000.3,N
1580665575.5,286047000.5,N
1580665595.3,286047000.5,N
1580665615.1,286047001.2,N
1580665635.9,286046999.8,N
1580665655.7,286047003.8,N
1580665675.5,286047002.1,N
1580665695.4,286046998.5,N
1580665715.2,286047001.2,N
1580665735.1,286046998.2,N
1580665736.0,286046998.2,N
1580665755.8,286047000.4,N
1580665775.6,286047002.6,N
1580665795.5,286047000.4,N
1580665815.3,286046998.7,N
1580665835.2,286046996.5,N
1580665855.9,286046996.6,N
1580665875.7,286046997.2,N
1580665895.6,286046996.6,N
1580665915.4,286046996.9,N
1580665935.2,286047000.4,N
1580665955.1,286046999.0,N
1580665956.0,286046999.0,N
1580665975.8,286047000.0,N
1580665995.7,286047004.3,N
1580666015.5,286047003.8,N
1580666035.3,286047001.9,N
1580666055.2,286047002.0,N
1580666075.0,286047003.9,N
1580666075.9,286047003.9,N
1580666095.8,286047002.9,N
1580666115.6,286047003.2,N
1580666135.4,286047001.7,N
1580666155.3,286047003.2,N
1580666175.1,286047001.7,N
1580666195.8,286047004.3,N
1580666215.7,286047001.4,N
1580666235.5,286047004.0,N
1580666255.4,286047004.4,N
1580666275.2,286047001.3,N
1580666295.0,286047001.7,N
1580666295.9,286047001.7,N
1580666315.8,286046999.9,N
1580666335.6,286047000.9,N
1580666355.5,286047002.0,N
1580666375.3,286047002.7,N
1580666395.1,286047002.4,N
